Location: Acts Church of Fort Worth
(32.6786°N, 97.2668°W)
Time: 09:16:36
(UTC+00:00)

Okean 3 - Pass Details

Date: 18 January 2026
Orbit: 541 x 564 km, 82.5° (Epoch: 9 February)

Event Time Altitude Azimuth Distance (km) Brightness Sun altitude
Exits shadow 11:50:13 17° 0° (N) 1,424 5.3 -20.9°
Maximum altitude 11:53:13 73° 83° (E) 570 3.4 -20.3°
Drops below altitude 10° 11:57:09 10° 168° (SSE) 1,797 6.2 -19.5°
Sets 11:59:18 0° 171° (S) 2,686 7.1 -19.1°
